{"data":{"norad_id":55827,"epoch":"2026-09-19T22:49:17.893920Z","epoch_age_seconds":65634,"freshness":"FRESH","line1":"1 55827U 23029AH  26262.95090155  .00000080  00000+0  16483-3 0  9997","line2":"2 55827  87.9146 255.5294 0002101  83.9591 276.1782 13.20777715173650","mean_motion":13.20777715,"eccentricity":0.0002101,"inclination_deg":87.9146,"raan_deg":255.5294,"arg_perigee_deg":83.9591,"mean_anomaly_deg":276.1782,"bstar":0.00016483,"rev_number":17365,"period_min":109.02667297048,"perigee_km":1180.162518651,"apogee_km":1183.3391835261,"semimajor_km":7559.8878510886,"source":"CELESTRAK","updated_at":"2026-09-20T09:00:44.765701Z"}}